Time,TemperatureF,DewpointF,PressureIn,WindDirection,WindDirectionDegrees,WindSpeedMPH,WindSpeedGustMPH,Humidity,HourlyPrecipIn,Conditions,Clouds,dailyrainin,SoftwareType,DateUTC
2013-09-20 00:13:00,67.0,66.0,30.02,ESE,115,0.0,-999.0,95,-99.99,,,0.00,,2013-09-20 05:13:00,
2013-09-20 00:23:00,67.0,66.0,30.01,ESE,115,0.0,-999.0,96,-99.99,,,0.00,,2013-09-20 05:23:00,
2013-09-20 00:53:00,67.0,66.0,30.01,ESE,115,0.0,-999.0,96,-99.99,,,0.00,,2013-09-20 05:53:00,
2013-09-20 01:12:00,66.0,65.0,30.01,ESE,115,0.0,-999.0,96,-99.99,,,0.00,,2013-09-20 06:12:00,
2013-09-20 01:22:00,66.0,65.0,30.00,ESE,115,0.0,-999.0,97,-99.99,,,0.00,,2013-09-20 06:22:00,
2013-09-20 01:52:00,66.0,65.0,30.00,ESE,115,0.0,-999.0,97,-99.99,,,0.00,,2013-09-20 06:52:00,
2013-09-20 02:11:00,66.0,65.0,30.00,ESE,114,0.0,-999.0,97,-99.99,,,0.00,,2013-09-20 07:11:00,
2013-09-20 02:22:00,66.0,65.0,30.00,ESE,115,0.0,-999.0,97,-99.99,,,0.00,,2013-09-20 07:22:00,
2013-09-20 02:32:00,66.0,65.0,30.00,ESE,115,0.0,-999.0,97,-99.99,,,0.00,,2013-09-20 07:32:00,
2013-09-20 02:52:00,65.0,64.0,30.01,ESE,115,0.0,-999.0,97,-99.99,,,0.00,,2013-09-20 07:52:00,
2013-09-20 03:11:00,65.0,64.0,30.01,ESE,115,0.0,-999.0,97,-99.99,,,0.00,,2013-09-20 08:11:00,
2013-09-20 03:22:00,65.0,64.0,30.01,ESE,114,0.0,-999.0,97,-99.99,,,0.00,,2013-09-20 08:22:00,
2013-09-20 03:42:00,65.0,64.0,30.01,ESE,114,0.0,-999.0,98,-99.99,,,0.00,,2013-09-20 08:42:00,
2013-09-20 03:52:00,65.0,64.0,30.01,ESE,114,0.0,-999.0,98,-99.99,,,0.00,,2013-09-20 08:52:00,
2013-09-20 04:22:00,64.0,63.0,30.00,ESE,115,0.0,-999.0,98,-99.99,,,0.00,,2013-09-20 09:22:00,
2013-09-20 04:33:00,64.0,63.0,30.00,ESE,115,0.0,-999.0,98,-99.99,,,0.00,,2013-09-20 09:33:00,
2013-09-20 04:43:00,64.0,63.0,30.00,ESE,115,0.0,-999.0,98,-99.99,,,0.00,,2013-09-20 09:43:00,
2013-09-20 04:53:00,64.0,63.0,30.01,ESE,115,0.0,-999.0,98,-99.99,,,0.00,,2013-09-20 09:53:00,
2013-09-20 05:23:00,64.0,63.0,30.01,ESE,115,0.0,-999.0,98,-99.99,,,0.00,,2013-09-20 10:23:00,
2013-09-20 05:53:00,64.0,63.0,30.01,ESE,114,0.0,-999.0,98,-99.99,,,0.00,,2013-09-20 10:53:00,
2013-09-20 06:12:00,64.0,63.0,30.01,ESE,115,0.0,-999.0,98,-99.99,,,0.00,,2013-09-20 11:12:00,
2013-09-20 06:23:00,64.0,63.0,30.01,ESE,115,0.0,-999.0,98,-99.99,,,0.00,,2013-09-20 11:23:00,
2013-09-20 06:52:00,64.0,64.0,30.01,ESE,115,0.0,-999.0,99,-99.99,,,0.00,,2013-09-20 11:52:00,
2013-09-20 07:12:00,64.0,64.0,30.01,SSW,197,0.0,-999.0,99,-99.99,,,0.00,,2013-09-20 12:12:00,
2013-09-20 07:22:00,64.0,64.0,30.01,SSW,197,0.0,-999.0,99,-99.99,,,0.00,,2013-09-20 12:22:00,
2013-09-20 07:32:00,64.0,64.0,30.01,SSW,197,0.0,-999.0,99,-99.99,,,0.00,,2013-09-20 12:32:00,
2013-09-20 07:52:00,64.0,64.0,30.02,SSW,197,0.0,-999.0,99,-99.99,,,0.00,,2013-09-20 12:52:00,
2013-09-20 08:12:00,65.0,65.0,30.02,SSW,207,0.0,-999.0,99,-99.99,,,0.00,,2013-09-20 13:12:00,
2013-09-20 08:21:00,67.0,67.0,30.01,SSE,148,0.0,-999.0,99,-99.99,,,0.00,,2013-09-20 13:21:00,
2013-09-20 08:42:00,68.0,68.0,30.01,SE,141,0.0,-999.0,100,-99.99,,,0.00,,2013-09-20 13:42:00,
2013-09-20 08:52:00,69.0,69.0,30.01,SE,141,0.0,-999.0,99,-99.99,,,0.00,,2013-09-20 13:52:00,
2013-09-20 09:11:00,72.0,68.0,30.01,SE,140,0.0,-999.0,88,-99.99,,,0.00,,2013-09-20 14:11:00,
2013-09-20 09:21:00,72.0,68.0,30.01,SE,140,0.0,-999.0,88,-99.99,,,0.00,,2013-09-20 14:21:00,
2013-09-20 09:52:00,78.0,69.0,29.99,ESE,120,2.0,-999.0,73,-99.99,,,0.00,,2013-09-20 14:52:00,
2013-09-20 10:12:00,79.0,68.0,29.98,South,170,1.0,-999.0,70,-99.99,,,0.00,,2013-09-20 15:12:00,
2013-09-20 10:22:00,81.0,66.0,29.97,South,173,4.0,-999.0,61,-99.99,,,0.00,,2013-09-20 15:22:00,
2013-09-20 10:54:00,82.0,67.0,29.96,SSW,196,2.0,-999.0,60,-99.99,,,0.00,,2013-09-20 15:54:00,
2013-09-20 11:23:00,83.0,68.0,29.95,SE,135,3.0,-999.0,60,-99.99,,,0.00,,2013-09-20 16:23:00,
2013-09-20 11:53:00,84.0,69.0,29.94,ESE,118,3.0,-999.0,60,-99.99,,,0.00,,2013-09-20 16:53:00,
2013-09-20 12:13:00,85.0,68.0,29.93,WSW,240,2.0,-999.0,57,-99.99,,,0.00,,2013-09-20 17:13:00,
2013-09-20 12:24:00,85.0,69.0,29.92,SSE,154,4.0,-999.0,59,-99.99,,,0.00,,2013-09-20 17:24:00,
2013-09-20 12:53:00,85.0,68.0,29.91,South,179,4.0,-999.0,56,-99.99,,,0.00,,2013-09-20 17:53:00,
2013-09-20 13:02:00,85.0,68.0,29.91,South,179,4.0,-999.0,56,-99.99,,,0.00,,2013-09-20 18:02:00,
2013-09-20 13:12:00,85.0,68.0,29.91,South,179,4.0,-999.0,56,-99.99,,,0.00,,2013-09-20 18:12:00,
2013-09-20 13:22:00,87.0,69.0,29.89,South,176,3.0,-999.0,56,-99.99,,,0.00,,2013-09-20 18:22:00,
2013-09-20 13:52:00,87.0,68.0,29.87,SSE,154,2.0,-999.0,53,-99.99,,,0.00,,2013-09-20 18:52:00,
2013-09-20 14:11:00,87.0,69.0,29.85,SSW,195,3.0,-999.0,55,-99.99,,,0.00,,2013-09-20 19:11:00,
2013-09-20 14:22:00,87.0,69.0,29.85,SE,131,2.0,-999.0,55,-99.99,,,0.00,,2013-09-20 19:22:00,
2013-09-20 14:53:00,88.0,69.0,29.84,SE,127,4.0,-999.0,53,-99.99,,,0.00,,2013-09-20 19:53:00,
2013-09-20 15:22:00,86.0,68.0,29.82,SE,129,3.0,-999.0,55,-99.99,,,0.00,,2013-09-20 20:22:00,
2013-09-20 15:32:00,86.0,68.0,29.82,SE,129,3.0,-999.0,55,-99.99,,,0.00,,2013-09-20 20:32:00,
2013-09-20 15:42:00,86.0,68.0,29.82,SE,129,3.0,-999.0,55,-99.99,,,0.00,,2013-09-20 20:42:00,
2013-09-20 15:52:00,86.0,67.0,29.81,SE,126,2.0,-999.0,54,-99.99,,,0.00,,2013-09-20 20:52:00,
2013-09-20 16:21:00,86.0,69.0,29.81,ESE,121,1.0,-999.0,57,-99.99,,,0.00,,2013-09-20 21:21:00,
2013-09-20 16:55:00,85.0,69.0,29.80,ESE,110,2.0,-999.0,59,-99.99,,,0.00,,2013-09-20 21:55:00,
2013-09-20 17:14:00,86.0,70.0,29.80,ESE,108,3.0,-999.0,59,-99.99,,,0.00,,2013-09-20 22:14:00,
2013-09-20 17:23:00,86.0,70.0,29.80,ESE,108,3.0,-999.0,59,-99.99,,,0.00,,2013-09-20 22:23:00,
2013-09-20 17:43:00,83.0,70.0,29.79,NE,50,1.0,-999.0,65,-99.99,,,0.00,,2013-09-20 22:43:00,
2013-09-20 17:53:00,83.0,70.0,29.79,NE,50,1.0,-999.0,65,-99.99,,,0.00,,2013-09-20 22:53:00,
2013-09-20 18:02:00,83.0,70.0,29.79,NE,50,1.0,-999.0,65,-99.99,,,0.00,,2013-09-20 23:02:00,
2013-09-20 18:13:00,83.0,70.0,29.79,NE,50,1.0,-999.0,65,-99.99,,,0.00,,2013-09-20 23:13:00,
2013-09-20 18:42:00,81.0,70.0,29.79,SE,124,2.0,-999.0,69,-99.99,,,0.00,,2013-09-20 23:42:00,
2013-09-20 18:53:00,81.0,70.0,29.79,SE,124,2.0,-999.0,69,-99.99,,,0.00,,2013-09-20 23:53:00,
2013-09-20 19:02:00,81.0,70.0,29.79,SE,124,2.0,-999.0,69,-99.99,,,0.00,,2013-09-21 00:02:00,
2013-09-20 19:21:00,78.0,69.0,29.79,ESE,122,1.0,-999.0,75,-99.99,,,0.00,,2013-09-21 00:21:00,
2013-09-20 19:42:00,77.0,69.0,29.79,SE,125,1.0,-999.0,77,-99.99,,,0.00,,2013-09-21 00:42:00,
2013-09-20 19:52:00,77.0,69.0,29.79,SE,125,1.0,-999.0,77,-99.99,,,0.00,,2013-09-21 00:52:00,
2013-09-20 20:02:00,77.0,69.0,29.79,SE,125,1.0,-999.0,77,-99.99,,,0.00,,2013-09-21 01:02:00,
2013-09-20 20:12:00,77.0,69.0,29.79,SE,125,1.0,-999.0,77,-99.99,,,0.00,,2013-09-21 01:12:00,
2013-09-20 22:22:00,74.0,71.0,29.82,SE,135,0.0,-999.0,90,-99.99,,,0.00,,2013-09-21 03:22:00,
2013-09-20 22:55:00,72.0,70.0,29.82,ESE,118,1.0,-999.0,93,-99.99,,,0.01,,2013-09-21 03:55:00,
2013-09-20 23:14:00,72.0,70.0,29.82,ESE,118,0.0,-999.0,94,-99.99,,,0.02,,2013-09-21 04:14:00,
2013-09-20 23:24:00,72.0,70.0,29.81,ESE,115,0.0,-999.0,94,-99.99,,,0.02,,2013-09-21 04:24:00,
2013-09-20 23:54:00,72.0,70.0,29.81,SE,141,0.0,-999.0,95,-99.99,,,0.02,,2013-09-21 04:54:00,